Volver al catálogo

ONEWEB-0679

ActivoComunicacionesPO
NORAD 56715·PAYLOAD·🇬🇧 United Kingdom

Lanzado May 20, 2023 desde Vandenberg Space Force Base

Loading…

Próximos Pases (próximas 24 horas)

TLE

ActualizadoSource: CelesTrak SupGP

Época: Sep 14, 2026, 22:14 UTC

1 56715C 23068F   26257.92687917 -.00002706  00000+0 -70862-2 0  2572
2 56715  87.9157 210.9517 0002079  94.9988 297.2927 13.16600197    16

Sigue ONEWEB-0679 en tiempo real con AllMySat

Download on the App Store